Weather in Hajjah

Yemen     15°41′48″N   43°35′50″E
temp.,
°C
wind,
m/s
gust,
m/s
humid.,
%
clouds,
%
prec.,
mm/h
press.,
hPa
HPBL,
m
12 april, mon
mon1200:00+25ene11594 0.0 101213
03:00+23wsw11685 0.0 101126
06:00+21ssw11795 0.0 101345
09:00+24wsw32632 0.0 1015711
12:00+28wsw434737 0.0 10141468
15:00+31wsw433830 0.0 10102103
18:00+27w32568 0.0 10111070
21:00+26nne01624 0.0 1013380
13 april, tue
tue1300:00+26wsw00621 0.0 101216
03:00+24ssw11725 0.1 101234
06:00+22s01795 0.0 101327
09:00+26wsw21579 0.0 1015766
12:00+30wsw534173 0.0 10131598
15:00+31w644255 0.2 10102028
18:00+28wsw325598 0.6 10111024
21:00+25wsw216427 1.0 1013330
14 april, wed
wed1400:00+25sw116731 0.0 1012130
03:00+23wsw227497 0.0 101289
06:00+21sw1186100 0.0 1013125
09:00+24wsw217098 0.0 1015619
12:00+29wsw434799 0.0 10121541
15:00+30wsw634684 0.0 10091871
18:00+26w326340 0.1 1011946
21:00+24wsw21715 0.5 1012315
15 april, thu
thu1500:00+24sw11747 0.5 1012214
03:00+23wsw11785 0.6 1011131
06:00+22sw007942 0.0 101232
09:00+27w215727 0.0 1013693
12:00+31wsw534012 0.0 10121684
15:00+32w744169 0.2 10091974
18:00+27wsw326222 0.7 1010869
21:00+25sw217115 2.4 1012375
16 april, fri
fri1600:00+24wsw217893 0.3 1011293
03:00+24ese1177100 1.1 1010133
06:00+24wsw117531 0.3 101142
09:00+27wsw325910 0.4 1012739
12:00+30wsw434978 0.4 10111715
15:00+31w434365 1.6 10091991
18:00+28wsw335510 2.2 1009912
21:00+27nnw01601 3.4 1010220